Location: Newark
(48.1774°N, 17.0743°E)
Time: 04:47:01
(UTC+00:00)

N. Korean satellite - Visible Passes

Search period start: 14 November 2019 00:00
Search period end: 24 November 2019 00:00
Orbit: 456 x 506 km, 97.2° (Epoch: 12 November)

Date Brightness Start Highest point End Pass type
(mag) Time Alt. Az. Time Alt. Az. Time Alt. Az.
14 Nov 10.2 03:36:33 10° ENE 03:37:51 11° E 03:39:09 10° ESE visible
14 Nov 6.6 05:07:57 10° N 05:11:40 63° WNW 05:15:19 10° SSW visible
14 Nov 6.6 15:46:28 10° SSE 15:50:04 82° ENE 15:53:45 10° N visible
15 Nov 7.1 04:42:34 10° NNE 04:46:18 65° E 04:49:57 10° S visible
15 Nov 9.9 16:55:59 10° SW 16:58:21 16° W 17:00:45 10° NW visible
16 Nov 8.6 04:17:26 10° NNE 04:20:50 32° E 04:24:11 10° SSE visible
16 Nov 8.7 16:29:32 10° SSW 16:32:47 30° W 16:36:05 10° NNW visible
17 Nov 9.7 03:52:42 10° NE 03:55:16 18° E 03:57:49 10° SE visible
17 Nov 7.1 05:25:21 10° N 05:28:50 39° WNW 05:32:18 10° SW visible
17 Nov 7.2 16:03:43 10° S 16:07:18 61° WSW 16:10:59 10° NNW visible
18 Nov 6.5 04:59:48 10° N 05:03:32 78° WNW 05:07:13 10° SSW visible
18 Nov 6.6 15:38:18 10° SSE 15:41:55 66° ENE 15:45:36 10° N visible
18 Nov 10.3 17:14:50 10° WSW 17:15:45 11° W 17:16:41 10° WNW visible
19 Nov 7.6 04:34:29 10° NNE 04:38:08 51° E 04:41:43 10° S visible
19 Nov 9.5 16:47:21 10° SW 16:50:07 20° W 16:52:55 10° NW visible
20 Nov 9.0 04:09:25 10° NE 04:12:38 26° E 04:15:46 10° SSE visible
20 Nov 8.3 16:21:09 10° SSW 16:24:34 38° W 16:28:03 10° NNW visible
21 Nov 10.0 03:44:55 10° NE 03:47:01 14° E 03:49:06 10° SE visible
21 Nov 6.8 05:17:06 10° N 05:20:42 48° WNW 05:24:14 10° SSW visible
21 Nov 6.8 15:55:27 10° S 15:59:06 77° WSW 16:02:50 10° NNW visible
22 Nov 6.7 04:51:37 10° NNE 04:55:21 84° ESE 04:59:00 10° SSW visible
22 Nov 10.0 17:05:37 10° WSW 17:07:28 13° W 17:09:20 10° WNW visible
23 Nov 8.0 04:26:22 10° NNE 04:29:54 41° E 04:33:22 10° S visible
23 Nov 9.2 16:38:47 10° SSW 16:41:51 24° W 16:44:57 10° NW visible
